Hourly Data Report for October 27, 2015

All times are specified in Local Standard Time (LST). Add 1 hour to adjust for Daylight Saving Time where and when it is observed.

IQALUIT CLIMATE
NUNAVUT

63°44'50.000" N
68°32'40.000" W
33.50 m
2402592
71321
XFB

Download Data

Hourly Data (October 2015)
Hourly Data Report for October 27, 2015
Temp Definition
°C
Dew Point Temp Definition
°C
Rel Hum Definition
%
Wind Dir Definition
10's deg

Wind Spd Definition
km/h
Visibility Definition
km
Stn Press Definition
kPa
Hmdx Definition


Wind Chill Definition


Weather Definition


TIME
00:00 -8.2 -13.3 67 18 12   99.00   -14 LegendNANA
01:00 -8.1 -13.8 64 19 13   99.00   -14 LegendNANA
02:00 -9.5 -12.8 77 5 4   99.02   -12 LegendNANA
03:00 -9.6 -12.4 80 8 12   99.04   -15 LegendNANA
04:00 -8.5 -12.1 75 11 10   99.04   -13 LegendNANA
05:00 -11.3 -14.1 80 1 5   99.06   -14 LegendNANA
06:00 -11.3 -13.7 82 2 7   99.10   -16 LegendNANA
07:00 -14.5 -16.5 85 34 11   99.14   -21 LegendNANA
08:00 -14.5 -16.7 84 32 16   99.19   -23 LegendNANA
09:00 -14.7 -17.1 82 32 26   99.21   -25 LegendNANA
10:00 -14.1 -16.7 81 32 23   99.26   -24 LegendNANA
11:00 -14.6 -17.7 77 33 21   99.28   -24 LegendNANA
12:00 -15.2 -18.3 77 33 30   99.34   -26 LegendNANA
13:00 -15.8 -18.8 78 33 27   99.40   -27 LegendNANA
14:00 -16.6 -19.5 78 33 31   99.49   -28 LegendNANA
15:00 -16.1 -18.8 80 33 31   99.55   -28 LegendNANA
16:00 -16.2 -18.7 81 35 39   99.62   -29 LegendNANA
17:00 -16.2 -18.8 81 34 38   99.69   -29 LegendNANA
18:00 -16.1 -18.6 81 34 40   99.78   -29 LegendNANA
19:00 -16.3 -18.9 80 33 30   99.88   -28 LegendNANA
20:00 -16.6 -19.0 81 33 33   99.97   -29 LegendNANA
21:00 -16.7 -19.2 81 34 32   100.06   -29 LegendNANA
22:00 -16.5 -19.0 81 33 30   100.11   -28 LegendNANA
23:00 -17.2 -19.8 80 33 31   100.20   -29 LegendNANA

Notes on Data Quality.

Legend

  • E = Estimated
  • M = Missing
  • NA = Not Available
  • ‡ = Partner data that is not subject to review by the National Climate Archives
Date modified: